Weather History for Fort Stockton, TX

Change the Weather History Date:

Thursday, May 2, 2013

  Actual Average Record
Temperature  
Mean Temperature 52 °F -  
Max Temperature 63 °F 86 °F 98 °F (2006)
Min Temperature 39 °F 57 °F 39 °F (2013)
Degree Days  
Heating Degree Days 12    
Growing Degree Days 2 (Base 50)    
Moisture  
Dew Point 33 °F    
Average Humidity 68    
Maximum Humidity 93    
Minimum Humidity 31    
Precipitation  
Precipitation 0.00 in - - ()
Sea Level Pressure  
Sea Level Pressure 30.38 in    
Wind  
Wind Speed 18 mph (North)    
Max Wind Speed 23 mph    
Max Gust Speed 33 mph    
Visibility 8 miles    
Events Rain    
Averages and records for this station are not official NWS values.
T = Trace of Precipitation, MM = Missing Value Source: NWS Daily Summary

Daily Weather History Graph

Daily Weather History Graph

Search for Another Location

Airport:

Trip Planner

Search our weather history database for the weather conditions in past years. The results will help you decide how hot, cold, wet, or windy it might be!

Date:

Astronomy

May. 02, 2013 Rise Set
Actual Time 7:06 AM CDT 8:31 PM CDT
Civil Twilight 6:40 AM CDT 8:57 PM CDT
Nautical Twilight 6:09 AM CDT 9:27 PM CDT
Astronomical Twilight 5:37 AM CDT 9:59 PM CDT
Moon 2:25 AM CDT (5/2) 1:51 PM CDT (5/2)
Length of Visible Light 14h 16m
Length of Day
13h 25m
Waning Gibbous, 47% of the Moon is Illuminated
May 2
Waning Gibbous
May 9
New
May 17
First Quarter
May 24
Full
May 31
Last Quarter

Hourly Weather History & Observations

Time (CDT) Temp. Windchill Dew Point Humidity Pressure Visibility Wind Dir Wind Speed Gust Speed Precip Events Conditions
12:53 AM 66.0 °F - 43.0 °F 43% 29.93 in 10.0 mi NE 23.0 mph 33.4 mph N/A   Clear
1:53 AM 55.9 °F - 37.9 °F 51% 30.04 in 10.0 mi North 19.6 mph 32.2 mph N/A   Clear
2:53 AM 50.0 °F - 36.0 °F 59% 30.14 in 10.0 mi North 19.6 mph 26.5 mph N/A   Scattered Clouds
3:33 AM 48.2 °F - 35.6 °F 62% 30.28 in 9.0 mi NNW 19.6 mph 27.6 mph N/A   Overcast
3:53 AM 48.0 °F - 36.0 °F 63% 30.17 in 8.0 mi NNW 20.7 mph - N/A   Overcast
4:53 AM 46.0 °F 38.0 °F 34.0 °F 63% 30.21 in 7.0 mi North 21.9 mph - N/A   Overcast
5:53 AM 43.0 °F 34.5 °F 35.1 °F 74% 30.25 in 9.0 mi North 19.6 mph 24.2 mph N/A   Overcast
6:38 AM 41.0 °F 34.3 °F 37.4 °F 87% 30.39 in 4.0 mi North 11.5 mph - 0.00 in Rain Light Rain
6:46 AM 41.0 °F 33.1 °F 39.2 °F 93% 30.39 in 4.0 mi NNW 15.0 mph - 0.00 in Rain Light Rain
6:53 AM 41.0 °F 34.3 °F 39.0 °F 93% 30.30 in 3.0 mi North 11.5 mph - 0.00 in Rain Light Rain
7:23 AM 41.0 °F 34.3 °F 39.2 °F 93% 30.42 in 3.0 mi NNW 11.5 mph - 0.00 in Rain Light Rain
7:53 AM 39.9 °F 32.1 °F 37.9 °F 93% 30.34 in 8.0 mi NNW 13.8 mph - 0.00 in   Overcast
8:33 AM 39.2 °F 29.0 °F 37.4 °F 93% 30.45 in 3.0 mi NNW 21.9 mph - 0.00 in Rain Light Rain
8:53 AM 39.9 °F 31.4 °F 37.9 °F 93% 30.37 in 5.0 mi NNW 16.1 mph - 0.00 in   Overcast
9:11 AM 39.2 °F 29.6 °F 37.4 °F 93% 30.46 in 4.0 mi NNW 19.6 mph 25.3 mph 0.00 in Rain Light Rain
9:33 AM 39.2 °F 29.6 °F 37.4 °F 93% 30.47 in 5.0 mi NNW 19.6 mph - 0.00 in   Overcast
9:45 AM 39.2 °F 29.6 °F 37.4 °F 93% 30.47 in 6.0 mi NNW 19.6 mph - 0.00 in   Overcast
9:53 AM 39.9 °F 29.7 °F 37.0 °F 89% 30.40 in 6.0 mi NNW 23.0 mph 27.6 mph 0.00 in   Overcast
10:02 AM 39.2 °F 29.3 °F 37.4 °F 93% 30.48 in 5.0 mi NNW 20.7 mph 26.5 mph N/A   Overcast
10:34 AM 39.2 °F 29.6 °F 35.6 °F 87% 30.50 in 7.0 mi NNW 19.6 mph 28.8 mph 0.00 in   Overcast
10:53 AM 39.9 °F 31.4 °F 37.0 °F 89% 30.43 in 4.0 mi NNW 16.1 mph 24.2 mph 0.00 in   Overcast
11:01 AM 39.2 °F 30.2 °F 37.4 °F 93% 30.51 in 4.0 mi NNW 17.3 mph 24.2 mph 0.00 in Rain Light Rain
11:31 AM 39.2 °F 29.6 °F 37.4 °F 93% 30.52 in 5.0 mi NNW 19.6 mph - 0.00 in   Overcast
11:53 AM 39.9 °F 30.2 °F 35.1 °F 83% 30.46 in 10.0 mi North 20.7 mph 26.5 mph 0.00 in   Overcast
12:53 PM 43.0 °F 35.4 °F 32.0 °F 65% 30.47 in 10.0 mi North 16.1 mph - N/A   Overcast
1:15 PM 44.6 °F 37.8 °F 30.2 °F 57% 30.53 in 10.0 mi North 15.0 mph - N/A   Overcast
1:53 PM 45.0 °F 37.6 °F 30.0 °F 56% 30.46 in 10.0 mi North 17.3 mph - N/A   Overcast
2:53 PM 50.0 °F - 28.9 °F 44% 30.44 in 10.0 mi North 18.4 mph 21.9 mph N/A   Overcast
3:53 PM 55.9 °F - 28.0 °F 34% 30.40 in 10.0 mi North 16.1 mph 25.3 mph N/A   Mostly Cloudy
4:53 PM 57.0 °F - 27.0 °F 32% 30.37 in 10.0 mi North 15.0 mph 27.6 mph N/A   Scattered Clouds
5:53 PM 55.9 °F - 26.1 °F 32% 30.37 in 10.0 mi North 21.9 mph - N/A   Partly Cloudy
6:53 PM 55.0 °F - 25.0 °F 31% 30.38 in 10.0 mi NNE 18.4 mph 25.3 mph N/A   Clear
7:53 PM 54.0 °F - 24.1 °F 31% 30.39 in 10.0 mi NNE 15.0 mph - N/A   Clear
8:53 PM 50.0 °F - 21.9 °F 33% 30.42 in 10.0 mi NNE 10.4 mph - N/A   Clear
9:53 PM 48.0 °F - 21.9 °F 36% 30.45 in 10.0 mi NNE 11.5 mph - N/A   Clear
10:53 PM 46.0 °F 41.0 °F 23.0 °F 40% 30.48 in 10.0 mi NE 10.4 mph - N/A   Clear
11:53 PM 42.1 °F 38.4 °F 23.0 °F 47% 30.49 in 10.0 mi NE 5.8 mph - N/A   Clear